Time,TemperatureF,DewpointF,PressureIn,WindDirection,WindDirectionDegrees,WindSpeedMPH,WindSpeedGustMPH,Humidity,HourlyPrecipIn,Conditions,Clouds,dailyrainin,SoftwareType,DateUTC
2013-03-09 00:01:00,35.0,35.0,-100.00,SE,130,12.0,17.0,99,0.21,,,-99.99,,2013-03-09 06:01:00,
2013-03-09 00:11:00,35.0,35.0,-100.00,SE,130,15.0,22.0,99,0.21,,,-99.99,,2013-03-09 06:11:00,
2013-03-09 00:22:00,35.0,35.0,-100.00,SE,130,15.0,22.0,99,0.21,,,-99.99,,2013-03-09 06:22:00,
2013-03-09 00:32:00,36.0,36.0,-100.00,ESE,115,16.0,20.0,99,0.21,,,-99.99,,2013-03-09 06:32:00,
2013-03-09 00:42:00,36.0,36.0,-100.00,ESE,115,16.0,20.0,99,0.21,,,-99.99,,2013-03-09 06:42:00,
2013-03-09 00:51:00,36.0,36.0,-100.00,ESE,120,19.0,24.0,99,0.00,,,-99.99,,2013-03-09 06:51:00,
2013-03-09 01:01:00,36.0,36.0,-100.00,ESE,120,17.0,24.0,99,0.00,,,-99.99,,2013-03-09 07:01:00,
2013-03-09 01:11:00,36.0,36.0,-100.00,ESE,120,17.0,24.0,99,0.00,,,-99.99,,2013-03-09 07:11:00,
2013-03-09 01:21:00,36.0,36.0,-100.00,ESE,120,16.0,23.0,99,0.00,,,-99.99,,2013-03-09 07:21:00,
2013-03-09 01:31:00,36.0,36.0,-100.00,ESE,120,16.0,23.0,99,0.00,,,-99.99,,2013-03-09 07:31:00,
2013-03-09 01:41:00,36.0,36.0,-100.00,ESE,120,16.0,23.0,99,0.00,,,-99.99,,2013-03-09 07:41:00,
2013-03-09 01:52:00,36.0,36.0,-100.00,SE,130,14.0,-999.0,99,0.00,,,-99.99,,2013-03-09 07:52:00,
2013-03-09 02:01:00,36.0,36.0,-100.00,SE,130,14.0,-999.0,99,0.00,,,-99.99,,2013-03-09 08:01:00,
2013-03-09 02:11:00,36.0,36.0,-100.00,SE,130,13.0,19.0,99,0.00,,,-99.99,,2013-03-09 08:11:00,
2013-03-09 02:22:00,36.0,36.0,-100.00,SE,130,13.0,19.0,99,0.00,,,-99.99,,2013-03-09 08:22:00,
2013-03-09 02:32:00,36.0,36.0,-100.00,SE,140,16.0,22.0,99,0.00,,,-99.99,,2013-03-09 08:32:00,
2013-03-09 02:41:00,36.0,36.0,-100.00,SE,135,15.0,20.0,99,0.00,,,-99.99,,2013-03-09 08:41:00,
2013-03-09 02:52:00,36.0,36.0,-100.00,SE,135,17.0,23.0,99,0.00,,,-99.99,,2013-03-09 08:52:00,
2013-03-09 03:01:00,36.0,36.0,-100.00,SE,135,17.0,23.0,99,0.00,,,-99.99,,2013-03-09 09:01:00,
2013-03-09 03:12:00,36.0,36.0,-100.00,SE,140,17.0,22.0,99,0.00,,,-99.99,,2013-03-09 09:12:00,
2013-03-09 03:21:00,36.0,36.0,-100.00,SE,140,17.0,22.0,99,0.00,,,-99.99,,2013-03-09 09:21:00,
2013-03-09 03:31:00,35.0,35.0,-100.00,SE,135,15.0,23.0,99,0.21,,,-99.99,,2013-03-09 09:31:00,
2013-03-09 03:42:00,35.0,-99.9,-100.00,SE,135,14.0,19.0,-999,0.21,,,-99.99,,2013-03-09 09:42:00,
2013-03-09 03:52:00,35.0,-99.9,-100.00,SE,135,14.0,19.0,-999,0.21,,,-99.99,,2013-03-09 09:52:00,
2013-03-09 04:01:00,35.0,-99.9,-100.00,SE,135,14.0,19.0,-999,0.21,,,-99.99,,2013-03-09 10:01:00,
2013-03-09 04:11:00,35.0,35.0,-100.00,SSE,160,12.0,19.0,99,0.51,,,-99.99,,2013-03-09 10:11:00,
2013-03-09 04:21:00,35.0,35.0,-100.00,SSE,160,12.0,19.0,99,0.51,,,-99.99,,2013-03-09 10:21:00,
2013-03-09 04:31:00,35.0,35.0,-100.00,SSE,160,10.0,15.0,99,0.81,,,-99.99,,2013-03-09 10:31:00,
2013-03-09 04:42:00,35.0,35.0,-100.00,SSE,155,11.0,14.0,99,0.71,,,-99.99,,2013-03-09 10:42:00,
2013-03-09 04:51:00,35.0,35.0,-100.00,SE,140,12.0,16.0,99,0.69,,,-99.99,,2013-03-09 10:51:00,
2013-03-09 05:01:00,35.0,35.0,-100.00,SE,140,12.0,16.0,99,0.69,,,-99.99,,2013-03-09 11:01:00,
2013-03-09 05:11:00,35.0,35.0,-100.00,SE,145,15.0,19.0,99,0.62,,,-99.99,,2013-03-09 11:11:00,
2013-03-09 05:21:00,35.0,35.0,-100.00,SE,145,15.0,19.0,99,0.62,,,-99.99,,2013-03-09 11:21:00,
2013-03-09 05:32:00,35.0,35.0,-100.00,SE,145,14.0,20.0,99,0.81,,,-99.99,,2013-03-09 11:32:00,
2013-03-09 05:41:00,35.0,35.0,-100.00,SE,135,14.0,21.0,99,0.84,,,-99.99,,2013-03-09 11:41:00,
2013-03-09 05:52:00,35.0,35.0,-100.00,SE,130,12.0,17.0,99,0.37,,,-99.99,,2013-03-09 11:52:00,
2013-03-09 06:01:00,35.0,35.0,-100.00,SE,130,14.0,19.0,99,0.38,,,-99.99,,2013-03-09 12:01:00,
2013-03-09 06:11:00,35.0,35.0,-100.00,SE,140,14.0,21.0,99,0.64,,,-99.99,,2013-03-09 12:11:00,
2013-03-09 06:21:00,35.0,35.0,-100.00,SE,140,16.0,21.0,99,0.23,,,-99.99,,2013-03-09 12:21:00,
2013-03-09 06:32:00,35.0,35.0,-100.00,SE,140,16.0,21.0,99,0.55,,,-99.99,,2013-03-09 12:32:00,
2013-03-09 06:42:00,35.0,35.0,-100.00,SE,140,16.0,21.0,99,0.55,,,-99.99,,2013-03-09 12:42:00,
2013-03-09 06:52:00,35.0,35.0,-100.00,SE,140,16.0,21.0,99,0.55,,,-99.99,,2013-03-09 12:52:00,
2013-03-09 07:02:00,35.0,35.0,-100.00,SSE,150,18.0,24.0,99,0.00,,,-99.99,,2013-03-09 13:02:00,
2013-03-09 07:11:00,35.0,35.0,-100.00,SSE,150,18.0,24.0,99,0.00,,,-99.99,,2013-03-09 13:11:00,
2013-03-09 07:21:00,35.0,35.0,-100.00,SSE,150,16.0,24.0,99,0.16,,,-99.99,,2013-03-09 13:21:00,
2013-03-09 07:32:00,35.0,35.0,-100.00,SSE,150,18.0,21.0,99,0.28,,,-99.99,,2013-03-09 13:32:00,
2013-03-09 07:42:00,36.0,36.0,-100.00,SSE,150,17.0,23.0,99,0.23,,,-99.99,,2013-03-09 13:42:00,
2013-03-09 07:52:00,36.0,36.0,-100.00,SSE,150,19.0,26.0,99,0.00,,,-99.99,,2013-03-09 13:52:00,
2013-03-09 08:01:00,36.0,36.0,-100.00,SSE,150,18.0,26.0,99,0.00,,,-99.99,,2013-03-09 14:01:00,
2013-03-09 08:11:00,36.0,36.0,-100.00,SE,145,18.0,26.0,99,0.00,,,-99.99,,2013-03-09 14:11:00,
2013-03-09 08:22:00,36.0,-99.9,-100.00,SE,145,18.0,24.0,-999,0.00,,,-99.99,,2013-03-09 14:22:00,
2013-03-09 08:32:00,35.0,35.0,-100.00,SE,145,15.0,21.0,99,0.00,,,-99.99,,2013-03-09 14:32:00,
2013-03-09 08:42:00,36.0,36.0,-100.00,SSE,150,17.0,21.0,99,0.00,,,-99.99,,2013-03-09 14:42:00,
2013-03-09 08:52:00,36.0,36.0,-100.00,SSE,155,19.0,24.0,99,0.00,,,-99.99,,2013-03-09 14:52:00,
2013-03-09 09:01:00,35.0,35.0,-100.00,SSE,155,17.0,26.0,99,0.00,,,-99.99,,2013-03-09 15:01:00,
2013-03-09 09:11:00,35.0,35.0,-100.00,SE,145,17.0,22.0,99,0.00,,,-99.99,,2013-03-09 15:11:00,
2013-03-09 09:22:00,36.0,36.0,-100.00,SSE,150,19.0,26.0,99,0.00,,,-99.99,,2013-03-09 15:22:00,
2013-03-09 09:32:00,36.0,36.0,-100.00,SSE,150,17.0,24.0,99,0.00,,,-99.99,,2013-03-09 15:32:00,
2013-03-09 09:42:00,36.0,36.0,-100.00,SSE,155,17.0,21.0,99,0.00,,,-99.99,,2013-03-09 15:42:00,
2013-03-09 09:52:00,36.0,-99.9,-100.00,SSE,150,16.0,21.0,-999,0.00,,,-99.99,,2013-03-09 15:52:00,
2013-03-09 10:01:00,36.0,36.0,-100.00,SSE,150,14.0,19.0,99,0.00,,,-99.99,,2013-03-09 16:01:00,
2013-03-09 10:11:00,36.0,36.0,-100.00,SE,145,14.0,18.0,99,0.00,,,-99.99,,2013-03-09 16:11:00,
2013-03-09 10:21:00,36.0,36.0,-100.00,SSE,150,16.0,20.0,99,0.18,,,-99.99,,2013-03-09 16:21:00,
2013-03-09 10:32:00,36.0,36.0,-100.00,SSE,150,19.0,26.0,99,0.25,,,-99.99,,2013-03-09 16:32:00,
2013-03-09 10:42:00,36.0,36.0,-100.00,SSE,150,19.0,24.0,99,0.79,,,-99.99,,2013-03-09 16:42:00,
2013-03-09 10:51:00,36.0,36.0,-100.00,SE,145,21.0,27.0,99,0.48,,,-99.99,,2013-03-09 16:51:00,
2013-03-09 11:01:00,36.0,36.0,-100.00,SE,145,19.0,26.0,99,0.00,,,-99.99,,2013-03-09 17:01:00,
2013-03-09 11:11:00,37.0,37.0,-100.00,SSE,150,19.0,27.0,99,0.00,,,-99.99,,2013-03-09 17:11:00,
2013-03-09 11:22:00,37.0,37.0,-100.00,SSE,150,22.0,27.0,99,0.23,,,-99.99,,2013-03-09 17:22:00,
2013-03-09 11:32:00,36.0,36.0,-100.00,SSE,150,17.0,26.0,99,0.00,,,-99.99,,2013-03-09 17:32:00,
2013-03-09 11:42:00,36.0,36.0,-100.00,SSE,155,20.0,27.0,99,0.61,,,-99.99,,2013-03-09 17:42:00,
2013-03-09 11:52:00,36.0,36.0,-100.00,SSE,155,21.0,24.0,99,0.62,,,-99.99,,2013-03-09 17:52:00,
2013-03-09 12:01:00,36.0,36.0,-100.00,SSE,155,21.0,26.0,99,0.47,,,-99.99,,2013-03-09 18:01:00,
2013-03-09 12:11:00,36.0,36.0,-100.00,SSE,155,19.0,26.0,99,0.62,,,-99.99,,2013-03-09 18:11:00,
2013-03-09 12:21:00,36.0,36.0,-100.00,SSE,150,16.0,24.0,99,0.98,,,-99.99,,2013-03-09 18:21:00,
2013-03-09 12:32:00,36.0,36.0,-100.00,SSE,160,17.0,23.0,99,0.95,,,-99.99,,2013-03-09 18:32:00,
2013-03-09 12:42:00,36.0,36.0,-100.00,SSE,150,12.0,19.0,99,0.95,,,-99.99,,2013-03-09 18:42:00,
2013-03-09 12:52:00,36.0,36.0,-100.00,SSE,150,15.0,20.0,99,1.20,,,-99.99,,2013-03-09 18:52:00,
2013-03-09 13:01:00,36.0,36.0,-100.00,SE,145,16.0,21.0,99,0.79,,,-99.99,,2013-03-09 19:01:00,
2013-03-09 13:11:00,36.0,36.0,-100.00,SSE,150,16.0,21.0,99,0.76,,,-99.99,,2013-03-09 19:11:00,
2013-03-09 13:22:00,36.0,36.0,-100.00,SSE,150,17.0,20.0,99,1.02,,,-99.99,,2013-03-09 19:22:00,
2013-03-09 13:32:00,37.0,37.0,-100.00,SSE,150,17.0,20.0,99,0.82,,,-99.99,,2013-03-09 19:32:00,
2013-03-09 13:42:00,37.0,37.0,-100.00,SSE,150,17.0,22.0,99,0.88,,,-99.99,,2013-03-09 19:42:00,
2013-03-09 13:52:00,37.0,-99.9,-100.00,SSE,150,17.0,22.0,-999,1.02,,,-99.99,,2013-03-09 19:52:00,
2013-03-09 14:01:00,37.0,37.0,-100.00,SE,140,16.0,20.0,99,0.88,,,-99.99,,2013-03-09 20:01:00,
2013-03-09 14:11:00,37.0,37.0,-100.00,SSE,155,13.0,21.0,99,0.20,,,-99.99,,2013-03-09 20:11:00,
2013-03-09 14:21:00,37.0,37.0,-100.00,SSE,150,16.0,21.0,99,0.75,,,-99.99,,2013-03-09 20:21:00,
2013-03-09 14:32:00,36.0,36.0,-100.00,SSE,155,14.0,20.0,99,0.17,,,-99.99,,2013-03-09 20:32:00,
2013-03-09 14:42:00,36.0,36.0,-100.00,SE,145,17.0,21.0,99,0.34,,,-99.99,,2013-03-09 20:42:00,
2013-03-09 14:52:00,36.0,36.0,-100.00,SE,145,15.0,19.0,99,0.14,,,-99.99,,2013-03-09 20:52:00,
2013-03-09 15:02:00,36.0,36.0,-100.00,SE,145,14.0,20.0,99,0.84,,,-99.99,,2013-03-09 21:02:00,
2013-03-09 15:12:00,36.0,36.0,-100.00,SSE,150,14.0,21.0,99,0.86,,,-99.99,,2013-03-09 21:12:00,
2013-03-09 15:22:00,37.0,-99.9,-100.00,SE,145,19.0,24.0,-999,0.86,,,-99.99,,2013-03-09 21:22:00,
2013-03-09 15:32:00,37.0,-99.9,-100.00,SE,145,19.0,24.0,-999,0.86,,,-99.99,,2013-03-09 21:32:00,
2013-03-09 15:42:00,37.0,37.0,-100.00,SE,145,14.0,23.0,99,0.91,,,-99.99,,2013-03-09 21:42:00,
2013-03-09 15:52:00,37.0,37.0,-100.00,South,170,12.0,19.0,99,0.85,,,-99.99,,2013-03-09 21:52:00,
2013-03-09 16:01:00,37.0,37.0,-100.00,SSE,165,10.0,13.0,99,0.64,,,-99.99,,2013-03-09 22:01:00,
2013-03-09 16:11:00,37.0,37.0,-100.00,SSE,155,10.0,15.0,99,0.45,,,-99.99,,2013-03-09 22:11:00,
2013-03-09 16:21:00,36.0,36.0,-100.00,SSE,150,9.0,15.0,99,0.44,,,-99.99,,2013-03-09 22:21:00,
2013-03-09 16:32:00,37.0,37.0,-100.00,SSE,160,7.0,10.0,99,0.58,,,-99.99,,2013-03-09 22:32:00,
2013-03-09 16:42:00,37.0,37.0,-100.00,SSE,150,11.0,13.0,99,0.47,,,-99.99,,2013-03-09 22:42:00,
2013-03-09 16:51:00,37.0,37.0,-100.00,SSE,150,10.0,12.0,99,0.45,,,-99.99,,2013-03-09 22:51:00,
2013-03-09 17:01:00,37.0,37.0,-100.00,SSE,150,12.0,14.0,99,0.48,,,-99.99,,2013-03-09 23:01:00,
2013-03-09 17:11:00,37.0,37.0,-100.00,SE,145,13.0,17.0,99,0.57,,,-99.99,,2013-03-09 23:11:00,
2013-03-09 17:21:00,37.0,37.0,-100.00,SE,145,13.0,17.0,99,0.57,,,-99.99,,2013-03-09 23:21:00,
2013-03-09 17:32:00,37.0,37.0,-100.00,SE,140,12.0,16.0,99,0.34,,,-99.99,,2013-03-09 23:32:00,
2013-03-09 17:42:00,37.0,37.0,-100.00,SSE,160,9.0,15.0,99,0.61,,,-99.99,,2013-03-09 23:42:00,
2013-03-09 17:52:00,37.0,37.0,-100.00,SSE,155,10.0,12.0,99,0.20,,,-99.99,,2013-03-09 23:52:00,
2013-03-09 18:01:00,37.0,37.0,-100.00,SSE,160,6.0,12.0,99,0.14,,,-99.99,,2013-03-10 00:01:00,
2013-03-09 18:11:00,38.0,38.0,-100.00,SW,225,1.0,6.0,99,0.00,,,-99.99,,2013-03-10 00:11:00,
2013-03-09 18:22:00,37.0,37.0,-100.00,SSE,150,4.0,8.0,99,0.14,,,-99.99,,2013-03-10 00:22:00,
2013-03-09 18:32:00,37.0,37.0,-100.00,South,180,1.0,6.0,99,0.11,,,-99.99,,2013-03-10 00:32:00,
2013-03-09 18:42:00,38.0,38.0,-100.00,South,170,1.0,3.0,99,0.00,,,-99.99,,2013-03-10 00:42:00,
2013-03-09 18:52:00,37.0,37.0,-100.00,ENE,65,0.0,2.0,99,0.20,,,-99.99,,2013-03-10 00:52:00,
2013-03-09 19:01:00,37.0,37.0,-100.00,East,90,0.0,1.0,99,0.11,,,-99.99,,2013-03-10 01:01:00,
2013-03-09 19:11:00,37.0,37.0,-100.00,East,90,0.0,1.0,99,0.11,,,-99.99,,2013-03-10 01:11:00,
2013-03-09 19:21:00,36.0,36.0,-100.00,ENE,70,2.0,4.0,99,0.11,,,-99.99,,2013-03-10 01:21:00,
2013-03-09 19:32:00,37.0,-99.9,-100.00,ENE,75,2.0,3.0,-999,0.00,,,-99.99,,2013-03-10 01:32:00,
2013-03-09 19:42:00,37.0,-99.9,-100.00,ENE,75,2.0,3.0,-999,0.00,,,-99.99,,2013-03-10 01:42:00,
2013-03-09 19:52:00,36.0,36.0,-100.00,ESE,110,6.0,9.0,99,0.00,,,-99.99,,2013-03-10 01:52:00,
2013-03-09 20:01:00,36.0,36.0,-100.00,ESE,110,6.0,9.0,99,0.00,,,-99.99,,2013-03-10 02:01:00,
2013-03-09 20:11:00,37.0,37.0,-100.00,SE,130,8.0,12.0,99,0.18,,,-99.99,,2013-03-10 02:11:00,
2013-03-09 20:22:00,37.0,37.0,-100.00,SE,125,7.0,11.0,99,0.18,,,-99.99,,2013-03-10 02:22:00,
2013-03-09 20:32:00,36.0,36.0,-100.00,ESE,120,7.0,9.0,99,0.17,,,-99.99,,2013-03-10 02:32:00,
2013-03-09 20:42:00,36.0,36.0,-100.00,ESE,120,7.0,9.0,99,0.17,,,-99.99,,2013-03-10 02:42:00,
2013-03-09 20:52:00,37.0,-99.9,-100.00,SE,125,7.0,10.0,-999,0.21,,,-99.99,,2013-03-10 02:52:00,
2013-03-09 21:02:00,38.0,-99.9,-100.00,SE,135,11.0,15.0,-999,0.20,,,-99.99,,2013-03-10 03:02:00,
2013-03-09 21:12:00,38.0,-99.9,-100.00,SE,135,11.0,15.0,-999,0.20,,,-99.99,,2013-03-10 03:12:00,
2013-03-09 21:22:00,38.0,38.0,-100.00,SE,130,13.0,19.0,99,0.27,,,-99.99,,2013-03-10 03:22:00,
2013-03-09 21:32:00,39.0,39.0,-100.00,SE,135,12.0,20.0,99,0.00,,,-99.99,,2013-03-10 03:32:00,
2013-03-09 21:42:00,39.0,39.0,-100.00,SE,135,16.0,23.0,99,0.00,,,-99.99,,2013-03-10 03:42:00,
2013-03-09 21:52:00,40.0,-99.9,-100.00,SE,140,16.0,24.0,-999,0.00,,,-99.99,,2013-03-10 03:52:00,
2013-03-09 22:02:00,40.0,-99.9,-100.00,SE,140,16.0,24.0,-999,0.00,,,-99.99,,2013-03-10 04:02:00,
2013-03-09 22:11:00,39.0,39.0,-100.00,SSE,150,10.0,17.0,99,0.00,,,-99.99,,2013-03-10 04:11:00,
2013-03-09 22:21:00,39.0,39.0,-100.00,ESE,120,3.0,7.0,99,0.00,,,-99.99,,2013-03-10 04:21:00,
2013-03-09 22:31:00,39.0,39.0,-100.00,ENE,75,0.0,2.0,99,0.00,,,-99.99,,2013-03-10 04:31:00,
2013-03-09 22:41:00,38.0,38.0,-100.00,NW,320,4.0,5.0,99,0.00,,,-99.99,,2013-03-10 04:41:00,
2013-03-09 22:51:00,38.0,38.0,-100.00,NW,320,4.0,4.0,99,0.00,,,-99.99,,2013-03-10 04:51:00,
2013-03-09 23:01:00,38.0,38.0,-100.00,NW,320,4.0,4.0,99,0.00,,,-99.99,,2013-03-10 05:01:00,
2013-03-09 23:11:00,37.0,37.0,-100.00,ENE,75,4.0,5.0,99,0.00,,,-99.99,,2013-03-10 05:11:00,
2013-03-09 23:22:00,37.0,37.0,-100.00,ENE,75,4.0,5.0,99,0.00,,,-99.99,,2013-03-10 05:22:00,
2013-03-09 23:31:00,37.0,37.0,-100.00,NE,50,7.0,8.0,99,0.00,,,-99.99,,2013-03-10 05:31:00,
2013-03-09 23:42:00,37.0,37.0,-100.00,NE,45,5.0,7.0,99,0.00,,,-99.99,,2013-03-10 05:42:00,
2013-03-09 23:52:00,37.0,-99.9,-100.00,NW,305,3.0,8.0,-999,0.00,,,-99.99,,2013-03-10 05:52:00,